Showing default

IRIDIUM 133, 42955

Orbit data source: Space-Track

IRIDIUM 133, 42955 is a payload satellite owned by Iridium (US) in LEO that was launched on Mon, 09 Oct 2017 UTC via an FALCON 9 launch vehicle from the Air Force Western Test Range (AFWTR). Payload-class satellites include a variety of spacecraft equipped with specific instruments for various scientific and technological missions. These include communications satellites like Starlink; space stations such as the ISS; scientific satellites like the Hubble; Earth observation satellites from companies like Planet Labs, Umbra, and HawkEye 360; GPS; miniature CubeSats for education and research; and military/defense satellites.

Loading next visibility...
Identifier
42955, 2017-061A
Orbit
LEO
Country
Flag of USUS
Related business
Manufacturer
OATK SSG Gilbert
Mission
Operational Commercial Communications
Bus & Motor
ELITEBUS, Unknown motor
Mass
860 kg wet, 700 kg dry
Launch date (UTC)
2017-10-09 (8 years ago)
Launch vehicle
FALCON 9
Launch site
Air Force Western Test Range (AFWTR)
Object type
Payload
Rocket body
Debris
Shape & HBR
Trap Box + 2 Pan, 4.8 m
Radar Cross Section
10.154 m², Large (>1 m²)

Expand to show TLE details & history
Last TLE update: 13 hours ago

TLE from 13 hours ago
0 IRIDIUM 133
1 42955U 17061A   25311.02813217  .00000013  00000-0 -25669-5 0  9994
2 42955  86.3940 118.1626 0001985  90.5454 269.5969 14.34218161422939
Epoch: 2025-11-07T00:40Z
TLE epoch observation values (Epoch: 2025-11-07T00:40:30.619Z)
Latitude
-0.00005°
Longitude
61.55704°
Altitude
780.727 km
Speed
7.463 km/s
True Right ascension
07h 52m 39s
True Declination
0° 00' 00"
Sunlit
Object was in daylight at epoch
Visualization orbit readout
Latitude
Unknown
Longitude
Unknown
Altitude
Unknown
Speed
Unknown
Apparent Right ascension
Unknown
Apparent Declination
Unknown
Sunlit
N/A
Visualization observer readout
Local Sidereal Time
10:11:47
Azimuth
Unknown
Elevation
Unknown
Doppler factor
Unknown
Orbital elements
Apogee altitude
776.05 km
Perigee altitude
773.211 km
Semi-major axis
7,152.767 km
Eccentricity
0.0002
Inclination
86.394°
RAAN
118.1626°
Arg. of periapsis
90.5454°
True anomaly
269.57415°
Mean anomaly
269.5969°
Eccentric anomaly
269.58553°
Mean motion
3.58783 °/min
Orbital period
100.34 mins
BSTAR
-0.0000025669
Loading maneuver chart data...
Computing Atmospheric mass density...
Loading historical data...
Loading historical data...
Loading historical data...
Loading historical data...
Loading historical data...
Loading historical data...
Loading historical data...

Documentation

Showing up to 5 results
|